Location: Angwan Shehu
(11.2514°N, 7.4613°E)
Time: 06:25:28
(UTC+00:00)

SR - Pass Details

Date: 16 April 2021
Orbit: 573 x 882 km, 66.7° (Epoch: 12 May)

Event Time Altitude Azimuth Distance (km) Brightness Sun altitude
Rises 08:02:44 0° 249° (WSW) 3,157 ? 39.2°
Reaches altitude 10° 08:07:57 10° 294° (WNW) 2,338 ? 40.4°
Maximum altitude 08:08:22 10° 298° (WNW) 2,340 ? 40.5°
Drops below altitude 10° 08:08:46 10° 302° (WNW) 2,353 ? 40.6°
Sets 08:14:20 0° 347° (NNW) 3,375 ? 42.0°
